Del Bajio, Mexico

7:35 AM CDT on April 19, 2018 (GMT -0500)
De Guanajuato International

Weather History for MMLO - December, 2013

Change the Weather History Date:

Monday, December 9, 2013

  Actual Average Record
Temperature  
Mean Temperature 62 °F -  
Max Temperature 78 °F 75 °F 80 °F (1997)
Min Temperature 46 °F 43 °F 35 °F (2010)
Degree Days  
Heating Degree Days 3    
Growing Degree Days 12 (Base 50)    
Moisture  
Dew Point 45 °F    
Average Humidity 60    
Maximum Humidity 93    
Minimum Humidity 26    
Precipitation  
Precipitation 0.00 in - - ()
Sea Level Pressure  
Sea Level Pressure 30.19 in    
Wind  
Wind Speed 3 mph ()    
Max Wind Speed 14 mph    
Max Gust Speed -    
Visibility 8.7 miles    
Events      
Averages and records for this station are not official NWS values.
T = Trace of Precipitation, MM = Missing Value Source: Averaged Metar Reports

Daily Weather History Graph

Daily Weather History Graph

Search for Another Location

Airport or City:

Trip Planner

Search our weather history database for the weather conditions in past years. The results will help you decide how hot, cold, wet, or windy it might be!

Date:

Astronomy

Dec. 09, 2013 Rise Set
Actual Time 7:11 AM CST 6:05 PM CST
Civil Twilight 6:47 AM CST 6:29 PM CST
Nautical Twilight 6:20 AM CST 6:56 PM CST
Astronomical Twilight 5:52 AM CST 7:24 PM CST
Moon 12:49 PM CST (12/9) 12:17 AM CST (12/9)
Length of Visible Light 11h 41m
Length of Day
10h 53m
Waxing Crescent, 51% of the Moon is Illuminated
Dec 9
Waxing Crescent
Dec 17
Full
Dec 25
Last Quarter
Jan 1
New
Jan 7
First Quarter

Hourly Weather History & Observations

Time (CST) Temp. Dew Point Humidity Pressure Visibility Wind Dir Wind Speed Gust Speed Precip Events Conditions
12:41 AM 53.6 °F 44.6 °F 72% 30.27 in 8.0 mi Calm Calm - N/A   Clear
2:45 AM 51.8 °F 44.6 °F 76% 29.90 in 8.0 mi NE 5.8 mph - N/A   Clear
3:44 AM 50.0 °F 44.6 °F 82% 30.24 in 8.0 mi NNE 4.6 mph - N/A   Clear
4:43 AM 50.0 °F 44.6 °F 82% 30.24 in 8.0 mi Calm Calm - N/A   Clear
5:43 AM 48.2 °F 44.6 °F 87% 29.98 in 8.0 mi Calm Calm - N/A   Clear
6:43 AM 48.2 °F 44.6 °F 87% 30.27 in 9.0 mi NE 4.6 mph - N/A   Scattered Clouds
7:40 AM 46.4 °F 44.6 °F 93% 30.29 in 8.0 mi Calm Calm - N/A   Mostly Cloudy
8:45 AM 57.2 °F 48.2 °F 72% 30.04 in 9.0 mi Calm Calm - N/A   Mostly Cloudy
9:40 AM 64.4 °F 48.2 °F 56% 30.32 in 9.0 mi Calm Calm - N/A   Mostly Cloudy
10:40 AM 69.8 °F 48.2 °F 46% 30.32 in 9.0 mi Calm Calm - N/A   Mostly Cloudy
11:42 AM 71.6 °F 48.2 °F 43% 29.99 in 9.0 mi Calm Calm - N/A   Mostly Cloudy
12:45 PM 75.2 °F 46.4 °F 36% 30.27 in 10.0 mi South 6.9 mph - N/A   Mostly Cloudy
1:45 PM 78.8 °F 44.6 °F 30% 30.24 in 10.0 mi West 8.1 mph - N/A   Mostly Cloudy
3:47 PM 78.8 °F 41.0 °F 26% 30.19 in 10.0 mi SSW 13.8 mph - N/A   Mostly Cloudy
4:45 PM 75.2 °F 39.2 °F 27% 30.20 in 10.0 mi WSW 9.2 mph - N/A   Mostly Cloudy
6:44 PM 66.2 °F 41.0 °F 40% 30.23 in 8.0 mi Calm Calm - N/A   Mostly Cloudy
7:50 PM 62.6 °F 42.8 °F 48% 30.26 in 8.0 mi Calm Calm - N/A   Mostly Cloudy
8:50 PM 59.0 °F 44.6 °F 59% 30.01 in 8.0 mi NNE 5.8 mph - N/A   Mostly Cloudy
9:44 PM 55.4 °F 48.2 °F 77% 30.29 in 8.0 mi ENE 5.8 mph - N/A   Scattered Clouds